Friday Harbor, WA
on Tuesday, January 1, 2013

Tuesday
Previous Day Next Day
Daily Summary
 ActualAverageRecord
Temperature
Mean Temperature °F °F  
Max Temperature 39°F 43°F 53°F (2006)
Min Temperature 30°F 35°F 25°F (2011)
Degree Days
Heating Degree Days 30    
Moisture
Dew Point 34°F   
Average Humidity 91    
Maximum Humidity 100    
Minimum Humidity 76    
Precipitation
Precipitation 0.00 in in in ()
Wind
Wind Speed 1 mph   
Max Wind Speed 6 mph   
Max Gust Speed mph   
Visibility 9 miles   
Events     
Averages and records for this station are not official NWS values.
Key: T is trace of precipitation, MM is missing value
Source: NWS Daily Summary
Seasonal Weather Averages
Time(PST)TemperatureDew PointHumidity Pressure Visibility Wind DirectionWind SpeedGust SpeedPrecipitationEvents Conditions
12:19 AM 37.4°F 35.6°F 93% 30.48 in 10.0 miles Calm Calm - N/A   Overcast
12:53 AM 37.9°F 37.0°F 97% 30.48 in 10.0 miles Calm Calm - N/A   Overcast
1:34 AM 37.4°F 37.4°F 100% 30.48 in 10.0 miles Calm Calm - N/A   Overcast
1:53 AM 37.9°F 37.0°F 97% 30.50 in 10.0 miles Calm Calm - N/A   Overcast
2:53 AM 37.9°F 37.0°F 97% 30.50 in 10.0 miles Calm Calm - N/A   Overcast
3:53 AM 37.0°F 35.1°F 93% 30.48 in 10.0 miles Calm Calm - N/A   Overcast
4:13 AM 35.6°F 33.8°F 93% 30.47 in 10.0 miles Calm Calm - N/A   Overcast
4:32 AM 35.6°F 35.6°F 100% 30.47 in 10.0 miles Calm Calm - N/A   Overcast
4:53 AM 36.0°F 35.1°F 97% 30.47 in 6.0 miles Calm Calm - N/A   Overcast
5:53 AM 35.1°F 34.0°F 96% 30.47 in 8.0 miles Calm Calm - N/A   Overcast
6:29 AM 35.6°F 35.6°F 100% 30.48 in 7.0 miles Calm Calm - N/A   Overcast
6:53 AM 37.0°F 35.1°F 93% 30.48 in 9.0 miles North 3.5 mph - N/A   Overcast
7:04 AM 37.4°F 35.6°F 93% 30.48 in 10.0 miles Calm Calm - N/A   Overcast
7:32 AM 35.6°F 33.8°F 93% 30.48 in 10.0 miles Calm Calm - N/A   Partly Cloudy
8:40 AM 33.8°F 32.0°F 93% 30.50 in 5.0 miles Calm Calm - N/A   Mostly Cloudy
8:53 AM 32.0°F 30.9°F 96% 30.51 in 7.0 miles Calm Calm - N/A   Mostly Cloudy
9:00 AM 33.8°F 32.0°F 93% 30.50 in 7.0 miles Calm Calm - N/A   Scattered Clouds
9:53 AM 37.0°F 35.1°F 93% 30.53 in 10.0 miles Calm Calm - N/A   Clear
10:32 AM 37.4°F 35.6°F 93% 30.51 in 10.0 miles North 5.8 mph - N/A   Mostly Cloudy
10:53 AM 37.9°F 34.0°F 86% 30.52 in 10.0 miles North 3.5 mph - N/A   Overcast
11:53 AM 37.9°F 33.1°F 83% 30.50 in 10.0 miles Calm Calm - N/A   Scattered Clouds
12:53 PM 39.0°F 32.0°F 76% 30.48 in 10.0 miles Calm Calm - N/A   Clear
1:53 PM 39.0°F 32.0°F 76% 30.47 in 10.0 miles North 5.8 mph - N/A   Clear
2:53 PM 39.0°F 32.0°F 76% 30.47 in 10.0 miles North 4.6 mph - N/A   Clear
3:53 PM 37.0°F 32.0°F 82% 30.47 in 10.0 miles Variable 3.5 mph - N/A   Clear
4:53 PM 36.0°F 32.0°F 86% 30.45 in 10.0 miles Calm Calm - N/A   Clear
5:53 PM 34.0°F 32.0°F 92% 30.43 in 10.0 miles Calm Calm - N/A   Clear
6:53 PM 34.0°F 32.0°F 92% 30.42 in 10.0 miles Calm Calm - N/A   Clear
7:53 PM 35.1°F 33.1°F 92% 30.40 in 10.0 miles Calm Calm - N/A   Clear
8:53 PM 35.1°F 32.0°F 89% 30.40 in 10.0 miles NNW 3.5 mph - N/A   Clear
9:53 PM 33.1°F 30.9°F 92% 30.40 in 10.0 miles Calm Calm - N/A   Clear
10:53 PM 30.9°F 30.0°F 96% 30.39 in 10.0 miles Calm Calm - N/A   Clear
11:53 PM 35.1°F 30.9°F 85% 30.39 in 10.0 miles NW 3.5 mph - N/A   Clear
Moon Phase
Jan. 01 Jan. 04 Jan. 11 Jan. 18 Jan. 26
Sunrise:08:04 AM (PST) Moon Rise:09:29 PM (PST)1/1
Sunset:04:27 PM (PST) Moon Set:09:56 AM (PST)1/1

Copyright © 2014 The Weather Underground, Inc.